Showing default

GALILEO 28 (224), 49810

Orbit data source: Space-Track

GALILEO 28 (224), 49810 is a payload satellite owned by EU SPA (ESA) that was launched on Sun, 05 Dec 2021 UTC via a SOYUZ-ST-B launch vehicle from the French Guiana (FRGUI). Payload-class satellites include a variety of spacecraft equipped with specific instruments for various scientific and technological missions. These include communications satellites like Starlink; space stations such as the ISS; scientific satellites like the Hubble; Earth observation satellites from companies like Planet Labs, Umbra, and HawkEye 360; GPS; miniature CubeSats for education and research; and military/defense satellites.

Loading next visibility...
Identifier
49810, 2021-116B
Orbit
Active
Country
Flag of ESAESA
Related business
Manufacturer
OHB
Mission
Operational Civil Navigation
Bus & Motor
GALILEO, AOCS
Mass
733 kg wet, 660 kg dry
Launch date (UTC)
2021-12-05 (5 years ago)
Launch vehicle
SOYUZ-ST-B
Launch site
French Guiana (FRGUI)
Object type
Payload
Rocket body
Debris
Shape & HBR
Box + 2 Pan, 7.3 m
Radar Cross Section
9.223 m², Large (>1 m²)

Expand to show TLE details & history
Last TLE update: 4 days ago

TLE from 4 days ago
0 GALILEO 28 (224)
1 49810U 21116B   26168.98509303 -.00000091  00000-0  00000-0 0  9994
2 49810  57.1613 341.6514 0001177 159.9709 202.1698  1.70475877 28225
Epoch: 2026-06-17T23:38Z
TLE epoch observation values (Epoch: 2026-06-17T23:38:32.037Z)
Latitude
1.80203°
Longitude
81.93352°
Altitude
23,225.284 km
Speed
3.669 km/s
True Right ascension
22h 51m 12s
True Declination
1° 47' 58"
Sunlit
Object was in daylight at epoch
Visualization orbit readout
Latitude
Unknown
Longitude
Unknown
Altitude
Unknown
Speed
Unknown
Apparent Right ascension
Unknown
Apparent Declination
Unknown
Sunlit
N/A
Visualization observer readout
Local Sidereal Time
21:30:50
Azimuth
Unknown
Elevation
Unknown
Doppler factor
Unknown
Orbital elements
Apogee altitude
23,225.38 km
Perigee altitude
23,218.412 km
Semi-major axis
29,600.033 km
Eccentricity
0.00012
Inclination
57.1613°
RAAN
341.6514°
Arg. of periapsis
159.9709°
True anomaly
202.16471°
Mean anomaly
202.1698°
Eccentric anomaly
202.16726°
Mean motion
0.42619 °/min
Orbital period
844.69 mins
BSTAR
0
Loading maneuver chart data...
Computing Atmospheric mass density...
Loading historical data...
Loading historical data...
Loading historical data...
Loading historical data...
Loading historical data...
Loading historical data...
Loading historical data...
Other satellites on launch #116 in the year 2021 (2021-12-05 UTC)

Documentation

Showing up to 5 results
|